Location: Branche des Alpilles
(43.6087°N, 4.6976°E)
Time: 04:28:24
(UTC+00:00)

NOSS 3-3 (C) - Pass Details

Date: 30 November 2020
Orbit: 820 x 1392 km, 63.4° (Epoch: 22 January)

Event Time Altitude Azimuth Distance (km) Brightness Sun altitude
Rises 18:16:54 0° 324° (NW) 3,958 7.5 -23.1°
Reaches altitude 10° 18:19:30 10° 327° (NNW) 3,075 6.9 -23.6°
Maximum altitude 18:26:58 66° 50° (NE) 1,379 4.5 -24.9°
Enters shadow 18:29:57 42° 115° (ESE) 1,803 4.9 -25.4°
